Location: Peterborough
(44.3091°N, 78.3197°W)
Time: 05:19:03
(UTC-04:00)

Courier 1B - Visible Passes

Search period start: 22 March 2023 00:00
Search period end: 01 April 2023 00:00
Orbit: 962 x 1209 km, 28.3° (Epoch: 21 March)

Date Brightness Start Highest point End Pass type
(mag) Time Alt. Az. Time Alt. Az. Time Alt. Az.
22 Mar 9.2 20:27:59 10° SW 20:32:40 20° S 20:37:02 11° SE visible
22 Mar 9.6 22:22:19 10° SW 22:23:56 13° SSW 22:23:56 13° SSW visible
23 Mar 9.2 21:28:05 10° SW 21:32:02 16° SSW 21:33:33 15° S visible
24 Mar 9.3 20:34:03 10° SW 20:38:32 18° S 20:42:53 10° SSE visible
25 Mar 9.5 21:35:12 10° SW 21:37:51 12° SSW 21:39:43 11° S visible
26 Mar 9.5 20:40:36 10° SW 20:44:22 15° SSW 20:48:02 10° SSE visible
28 Mar 9.8 20:48:20 10° SW 20:50:07 11° SSW 20:51:52 10° S visible
